GW3580 Weather Reports


Display with metric or nautical units.
time (UTC)temp
F
wind
direction
speed
MPH
gust
MPH
rain 1hr
in
rain 24hr
in
rain mn
in
humidity
%
barometer
mb
20260505075504 56 266 4.0 5.0 0.00 0.00 0.00 73 1013.3
20260505075001 56 293 3.0 4.0 0.00 0.00 0.00 73 1013.4
20260505074458 56 292 1.0 1.0 0.00 0.00 0.00 73 1013.0
20260505073955 56 250 3.0 4.0 0.00 0.00 0.00 73 1013.2
20260505073452 56 250 2.0 2.0 0.00 0.00 0.00 72 1013.1
20260505072950 57 260 2.0 2.0 0.00 0.00 0.00 71 1013.3
20260505072446 57 308 1.0 1.0 0.00 0.00 0.00 71 1013.2
20260505071942 57 285 1.0 2.0 0.00 0.00 0.00 72 1013.0
20260505071438 57 266 1.0 1.0 0.00 0.00 0.00 72 1013.1
20260505070937 57 261 3.0 4.0 0.00 0.00 0.00 72 1013.1
20260505070433 57 283 3.0 4.0 0.00 0.00 0.00 71 1013.2
20260505065929 57 274 1.0 1.0 0.00 0.00 0.00 72 1013.2
20260505065425 57 261 2.0 2.0 0.00 0.00 0.00 71 1013.0
20260505064922 57 262 1.0 1.0 0.00 0.00 0.00 71 1013.2
20260505064419 57 265 1.0 1.0 0.00 0.00 0.00 70 1013.2
20260505063918 57 272 1.0 2.0 0.00 0.00 0.00 70 1013.1
20260505063414 57 263 2.0 2.0 0.00 0.00 0.00 70 1013.0
20260505062910 57 249 2.0 2.0 0.00 0.00 0.00 69 1013.2
20260505062408 57 267 2.0 2.0 0.00 0.00 0.00 69 1013.1
20260505061904 57 251 2.0 5.0 0.00 0.00 0.00 70 1013.2
20260505061402 57 262 3.0 4.0 0.00 0.00 0.00 70 1013.2
20260505060859 57 258 2.0 2.0 0.00 0.00 0.00 71 1013.2
20260505060356 57 274 1.0 1.0 0.00 0.00 0.00 71 1013.2
20260505055852 57 254 2.0 2.0 0.00 0.00 0.00 71 1013.4
20260505055348 58 281 2.0 2.0 0.00 0.00 0.00 73 1013.3
20260505054846 58 13 0.0 0.0 0.00 0.00 0.00 73 1013.1
20260505054343 58 264 0.0 0.0 0.00 0.00 0.00 73 1013.3
20260505053841 58 330 0.0 0.0 0.00 0.00 0.00 73 1013.5
20260505053338 58 267 1.0 1.0 0.00 0.00 0.00 72 1013.2
20260505052834 58 252 2.0 2.0 0.00 0.00 0.00 72 1013.2
20260505052331 59 242 1.0 1.0 0.00 0.00 0.00 72 1013.5
20260505051829 59 258 1.0 1.0 0.00 0.00 0.00 69 1013.4
20260505051326 59 267 1.0 2.0 0.00 0.00 0.00 69 1013.4
20260505050824 59 281 1.0 1.0 0.00 0.00 0.00 69 1013.2
20260505050322 59 270 1.0 1.0 0.00 0.00 0.00 68 1013.4
20260505041752 59 277 1.0 1.0 0.00 0.00 0.00 66 1013.3
20260505041249 59 275 1.0 1.0 0.00 0.00 0.00 66 1013.2
20260505040747 59 282 1.0 1.0 0.00 0.00 0.00 67 1013.1
20260505040244 59 248 1.0 1.0 0.00 0.00 0.00 67 1013.0
20260505035741 59 266 1.0 1.0 0.00 0.00 0.00 67 1013.1
20260505035236 59 264 0.0 0.0 0.00 0.00 0.00 67 1013.2
20260505034733 59 264 0.0 0.0 0.00 0.00 0.00 67 1012.9
20260505034230 59 263 1.0 1.0 0.00 0.00 0.00 67 1013.0
20260505033727 59 270 1.0 1.0 0.00 0.00 0.00 67 1013.0
20260505033225 59 291 1.0 1.0 0.00 0.00 0.00 67 1012.8
20260505032723 59 277 2.0 2.0 0.00 0.00 0.00 68 1012.9
20260505032218 59 349 0.0 0.0 0.00 0.00 0.00 68 1012.6
20260505031716 59 0 0.0 0.0 0.00 0.00 0.00 67 1012.9
20260505031212 59 331 0.0 0.0 0.00 0.00 0.00 67 1012.9
20260505030709 59 335 0.0 0.0 0.00 0.00 0.00 67 1012.9
20260505030205 59 255 1.0 2.0 0.00 0.00 0.00 66 1012.8
20260505025701 59 263 0.0 0.0 0.00 0.00 0.00 65 1012.8
20260505025159 59 282 2.0 2.0 0.00 0.00 0.00 65 1012.8
20260505024657 59 271 1.0 1.0 0.00 0.00 0.00 65 1012.7
20260505024154 59 279 2.0 2.0 0.00 0.00 0.00 64 1012.7
20260505023651 59 258 0.0 1.0 0.00 0.00 0.00 65 1012.7
20260505023149 59 287 1.0 1.0 0.00 0.00 0.00 65 1012.6
20260505022646 59 327 0.0 0.0 0.00 0.00 0.00 64 1012.6
20260505022143 60 335 0.0 0.0 0.00 0.00 0.00 64 1012.9
20260505021639 60 281 1.0 1.0 0.00 0.00 0.00 63 1012.6
20260505021136 60 1 0.0 0.0 0.00 0.00 0.00 63 1012.8
20260505020632 60 2 0.0 0.0 0.00 0.00 0.00 62 1012.5
20260505020128 60 3 0.0 0.0 0.00 0.00 0.00 61 1012.8
20260505015626 60 38 0.0 0.0 0.00 0.00 0.00 63 1012.8
20260505015122 60 39 0.0 0.0 0.00 0.00 0.00 63 1012.9
20260505014619 60 37 1.0 1.0 0.00 0.00 0.00 62 1012.6
20260505014116 60 38 0.0 0.0 0.00 0.00 0.00 62 1012.8
20260505013613 60 52 0.0 0.0 0.00 0.00 0.00 62 1013.1
20260505013110 61 34 1.0 1.0 0.00 0.00 0.00 60 1013.1
20260505012609 61 25 0.0 0.0 0.00 0.00 0.00 60 1012.9
20260505012105 61 9 0.0 0.0 0.00 0.00 0.00 59 1013.1
20260505011600 61 28 0.0 0.0 0.00 0.00 0.00 59 1013.0
20260505011058 61 29 1.0 2.0 0.00 0.00 0.00 59 1012.8
20260505010553 61 40 0.0 0.0 0.00 0.00 0.00 58 1013.0
20260505010050 61 19 0.0 1.0 0.00 0.00 0.00 59 1013.0
20260505005546 61 14 0.0 0.0 0.00 0.00 0.00 59 1013.2
20260505005044 61 355 1.0 2.0 0.00 0.00 0.00 59 1013.1
20260505004541 61 13 0.0 1.0 0.00 0.00 0.00 60 1013.2
20260505004038 61 25 0.0 0.0 0.00 0.00 0.00 60 1013.2
20260505003535 61 55 1.0 1.0 0.00 0.00 0.00 60 1013.1
20260505003032 60 21 2.0 2.0 0.00 0.00 0.00 60 1013.3
20260505002526 60 61 2.0 2.0 0.00 0.00 0.00 61 1013.4
20260505002026 60 35 2.0 2.0 0.00 0.00 0.00 61 1013.4
20260505001522 60 58 2.0 2.0 0.00 0.00 0.00 61 1013.2
20260505001020 61 77 2.0 2.0 0.00 0.00 0.00 62 1013.4
20260505000517 61 39 1.0 2.0 0.00 0.00 0.00 61 1013.2
20260505000015 61 54 1.0 1.0 0.00 0.00 0.00 60 1013.5
20260504235511 61 26 1.0 1.0 0.00 0.00 0.00 59 1013.4
20260504235007 61 69 0.0 1.0 0.00 0.00 0.00 60 1013.7
20260504234505 62 7 2.0 4.0 0.00 0.00 0.00 59 1013.5
20260504234001 62 56 0.0 0.0 0.00 0.00 0.00 59 1013.6
20260504233456 62 22 0.0 0.0 0.00 0.00 0.00 59 1013.6
20260504232954 61 359 0.0 0.0 0.00 0.00 0.00 58 1013.5
20260504232451 62 15 4.0 5.0 0.00 0.00 0.00 57 1013.5
20260504231948 62 65 1.0 1.0 0.00 0.00 0.00 59 1013.5
20260504231444 61 80 2.0 4.0 0.00 0.00 0.00 61 1013.5
20260504230941 62 73 2.0 4.0 0.00 0.00 0.00 60 1013.6
20260504230437 61 76 2.0 4.0 0.00 0.00 0.00 60 1013.6
20260504225937 62 103 5.0 6.0 0.00 0.00 0.00 60 1013.7
20260504225433 61 3 2.0 4.0 0.00 0.00 0.00 61 1013.9
20260504224930 61 72 2.0 2.0 0.00 0.00 0.00 61 1013.9
20260504224427 61 1 1.0 4.0 0.00 0.00 0.00 61 1013.8
20260504223924 61 353 3.0 4.0 0.00 0.00 0.00 61 1014.0
20260504223419 61 29 1.0 2.0 0.00 0.00 0.00 60 1014.0
20260504222916 61 10 1.0 1.0 0.00 0.00 0.00 59 1013.9
20260504222413 61 48 0.0 0.0 0.00 0.00 0.00 60 1014.1
20260504221911 60 48 0.0 0.0 0.00 0.00 0.00 59 1014.2
20260504221408 60 32 1.0 2.0 0.00 0.00 0.00 60 1014.0
20260504220905 60 61 0.0 1.0 0.00 0.00 0.00 60 1014.1
20260504220401 60 64 1.0 1.0 0.00 0.00 0.00 61 1014.2
20260504215859 60 57 0.0 0.0 0.00 0.00 0.00 61 1014.4
20260504215355 60 91 2.0 2.0 0.00 0.00 0.00 61 1014.5
20260504214852 60 34 0.0 0.0 0.00 0.00 0.00 60 1014.4
20260504214348 60 38 1.0 1.0 0.00 0.00 0.00 60 1014.3
20260504213845 60 24 1.0 1.0 0.00 0.00 0.00 61 1014.4
20260504213340 60 38 0.0 0.0 0.00 0.00 0.00 61 1014.6
20260504212838 60 59 1.0 1.0 0.00 0.00 0.00 60 1014.6
20260504212334 60 47 1.0 1.0 0.00 0.00 0.00 60 1014.4
20260504211832 60 6 2.0 4.0 0.00 0.00 0.00 60 1014.6
20260504211328 60 57 1.0 2.0 0.00 0.00 0.00 60 1014.8
20260504210826 60 14 1.0 1.0 0.00 0.00 0.00 60 1014.6
20260504210323 60 46 2.0 4.0 0.00 0.00 0.00 60 1014.6
20260504205820 60 54 0.0 0.0 0.00 0.00 0.00 59 1014.7
20260504205318 60 23 1.0 1.0 0.00 0.00 0.00 59 1014.6
20260504204815 60 43 1.0 1.0 0.00 0.00 0.00 60 1014.7
20260504204314 60 79 0.0 1.0 0.00 0.00 0.00 59 1014.7
20260504203813 60 267 0.0 0.0 0.00 0.00 0.00 61 1014.6
20260504203309 60 15 0.0 0.0 0.00 0.00 0.00 59 1014.7
20260504202804 60 265 1.0 1.0 0.00 0.00 0.00 58 1014.7
20260504202304 60 309 0.0 1.0 0.00 0.00 0.00 58 1014.7
20260504201759 60 305 1.0 1.0 0.00 0.00 0.00 58 1014.6
20260504201256 61 249 2.0 2.0 0.00 0.00 0.00 58 1014.6
20260504200754 61 242 3.0 4.0 0.00 0.00 0.00 58 1014.6
20260504200249 60 338 1.0 1.0 0.00 0.00 0.00 59 1014.4
20260504195746 61 0 0.0 0.0 0.00 0.00 0.00 59 1014.5
20260504195242 61 299 1.0 1.0 0.00 0.00 0.00 59 1014.7
20260504194739 61 261 1.0 1.0 0.00 0.00 0.00 59 1014.6
20260504194235 60 54 1.0 1.0 0.00 0.00 0.00 58 1014.8
20260504193732 60 181 0.0 0.0 0.00 0.00 0.00 61 1014.8
20260504193229 59 182 0.0 1.0 0.00 0.00 0.00 62 1014.9
20260504192728 59 266 2.0 2.0 0.00 0.00 0.00 61 1014.9
20260504192225 59 328 0.0 0.0 0.00 0.00 0.00 62 1015.0
20260504191724 59 230 0.0 1.0 0.00 0.00 0.00 62 1014.9
20260504191220 59 213 0.0 1.0 0.00 0.00 0.00 62 1015.0
20260504190715 58 292 2.0 2.0 0.00 0.00 0.00 62 1015.2
20260504190212 58 276 1.0 2.0 0.00 0.00 0.00 63 1015.0
20260504185709 58 209 1.0 2.0 0.00 0.00 0.00 62 1015.0
20260504185205 59 273 1.0 1.0 0.00 0.00 0.00 62 1015.0
20260504184702 58 339 0.0 0.0 0.00 0.00 0.00 62 1014.9
20260504184157 58 292 2.0 4.0 0.00 0.00 0.00 63 1015.2
20260504183654 58 246 1.0 1.0 0.00 0.00 0.00 64 1015.0
20260504183151 58 280 1.0 2.0 0.00 0.00 0.00 64 1015.0
20260504182649 58 270 2.0 2.0 0.00 0.00 0.00 64 1015.2
20260504182146 58 295 0.0 1.0 0.00 0.00 0.00 63 1015.1
20260504181644 58 262 2.0 2.0 0.00 0.00 0.00 62 1015.2
20260504181141 58 285 1.0 1.0 0.00 0.00 0.00 63 1015.2
20260504180640 58 213 3.0 5.0 0.00 0.00 0.00 63 1014.9
20260504180138 58 260 1.0 1.0 0.00 0.00 0.00 64 1015.1
20260504175635 58 264 2.0 2.0 0.00 0.00 0.00 64 1014.9
20260504175132 58 287 3.0 4.0 0.00 0.00 0.00 63 1014.9
20260504174630 58 283 3.0 4.0 0.00 0.00 0.00 64 1014.9
20260504174126 58 266 2.0 2.0 0.00 0.00 0.00 64 1014.8
20260504173624 58 266 5.0 6.0 0.00 0.00 0.00 64 1014.6
20260504173121 58 263 3.0 4.0 0.00 0.00 0.00 64 1014.7
20260504172617 57 265 2.0 2.0 0.00 0.00 0.00 65 1014.6
20260504172114 57 240 4.0 5.0 0.00 0.00 0.00 65 1014.7
20260504171610 58 275 3.0 7.0 0.00 0.00 0.00 64 1014.4
20260504171108 58 281 1.0 1.0 0.00 0.00 0.00 64 1014.6
20260504170603 57 249 3.0 4.0 0.00 0.00 0.00 64 1014.5
20260504150947 56 205 0.0 1.0 0.00 0.00 0.00 70 1014.3
20260504150444 56 34 1.0 2.0 0.00 0.00 0.00 70 1014.2
20260504140910 55 249 2.0 2.0 0.00 0.00 0.00 71 1014.0
20260504140406 55 193 0.0 1.0 0.00 0.00 0.00 71 1014.2
20260504130331 56 307 0.0 0.0 0.00 0.00 0.00 70 1013.7
20260504120254 56 218 1.0 2.0 0.00 0.00 0.00 70 1013.5
20260504110218 56 256 2.0 4.0 0.00 0.00 0.00 67 1013.5
20260504100142 56 71 1.0 2.0 0.00 0.00 0.00 67 1013.0
20260504090104 56 250 3.0 4.0 0.00 0.00 0.00 64 1013.0
20260504081535 56 254 2.0 2.0 0.00 0.00 0.00 64 1013.1
20260504081031 56 266 2.0 2.0 0.00 0.00 0.00 64 1013.0
20260504080527 56 274 2.0 2.0 0.00 0.00 0.00 64 1012.9